Weather in Zabki

Poland     52°17′32″N   21°06′53″E
temp.,
°C
wind,
m/s
gust,
m/s
humid.,
%
clouds,
%
prec.,
mm/h
press.,
hPa
HPBL,
m
25 february, thu
thu2501:00+6w238954 0.0 103124
04:00+5wsw239117 0.0 102922
07:00+5sw239120 0.0 103023
10:00+8sw238431 0.0 1029110
13:00+12ssw257115 0.0 1028298
16:00+11ssw23780 0.0 102661
19:00+9sw34820 0.0 102680
22:00+7wsw39840 0.0 1025177
26 february, fri
fri2601:00+7w49890 0.0 1026199
04:00+6w38950 0.0 1025171
07:00+5w3109725 0.0 1026242
10:00+8w498095 0.0 1025511
13:00+9w5105697 0.0 1025898
16:00+8wnw41062100 0.0 10241088
19:00+6wnw51269100 0.0 1025895
22:00+5wnw5127828 0.0 10241017
27 february, sat
sat2701:00+5wnw6128160 0.0 10251040
04:00+5wnw6128097 0.1 1024824
07:00+4wnw5118398 0.1 1025891
10:00+5nw6107392 0.0 1026886
13:00+7nw6105870 0.0 10271225
16:00+7nw6105815 0.0 10281184
19:00+4nnw511699 0.0 1030761
22:00+2nnw410810 0.0 1031454
28 february, sun
sun2801:000nw37900 0.0 1033354
04:000nw379228 0.0 1033319
07:000nw378956 0.0 1033312
10:00+3wnw3572100 0.0 1033432
13:00+6nw355650 0.0 1033943
16:00+6nw36560 0.0 1032817
19:00+4wnw36710 0.0 1033199
22:00+2wnw24770 0.0 1034111
1 march, mon
mon101:00+1w36820 0.0 1034181
04:00+1wnw24940 0.0 1033144
07:00+1nnw259712 0.0 1034206
10:00+2nne1286100 0.0 1035307
13:00+5s117095 0.0 1036480
16:00+5ssw117120 0.0 1035437
19:00+3ssw228510 0.0 103687
22:00+2ssw24910 0.0 1037126